This is the latest recevied weather packets stored in our database for station/object WX4HP-13. If no packets are shown the sender has not sent any weather packets the latest 10 day(s).
| Time | Temp. | Humidity | Pressure | Rain* | Wind** | Luminosity | Snow |
|---|---|---|---|---|---|---|---|
| 1777991696 | 21.11° C | 57% | 1013.8 hPa | 0 mm | - | - | - |
| 1777991397 | 20.56° C | 59% | 1013.9 hPa | 0 mm | - | - | - |
| 1777991097 | 20.56° C | 60% | 1014 hPa | 0 mm | - | - | - |
| 1777990796 | 20° C | 62% | 1014.1 hPa | 0 mm | - | - | - |
| 1777989898 | 18.89° C | 64% | 1014.4 hPa | 0 mm | - | - | - |
| 1777989596 | 18.89° C | 64% | 1014.2 hPa | 0 mm | - | - | - |
| 1777989296 | 18.89° C | 65% | 1014.2 hPa | 0 mm | - | - | - |
| 1777988997 | 18.33° C | 66% | 1014.1 hPa | 0 mm | - | - | - |
| 1777988695 | 17.78° C | 68% | 1014.2 hPa | 0 mm | - | - | - |
| 1777988396 | 17.78° C | 68% | 1014.2 hPa | 0 mm | - | - | - |
| 1777988095 | 17.78° C | 67% | 1014.3 hPa | 0 mm | - | - | - |
| 1777987796 | 17.78° C | 67% | 1014.3 hPa | 0 mm | - | - | - |
| 1777987495 | 17.78° C | 68% | 1014.3 hPa | 0 mm | - | - | - |
| 1777987194 | 17.22° C | 68% | 1014.4 hPa | 0 mm | - | - | - |
| 1777986898 | 17.78° C | 68% | 1014.5 hPa | 0 mm | - | - | - |
| 1777986597 | 17.22° C | 69% | 1014.4 hPa | 0 mm | - | - | - |
| 1777986297 | 16.67° C | 73% | 1014.4 hPa | 0 mm | - | - | - |
| 1777985997 | 16.11° C | 73% | 1014.5 hPa | 0 mm | - | - | - |
| 1777985698 | 16.11° C | 74% | 1014.5 hPa | 0 mm | - | - | - |
| 1777985398 | 16.11° C | 75% | 1014.3 hPa | 0 mm | - | - | - |
| 1777985098 | 15.56° C | 76% | 1014.4 hPa | 0 mm | - | - | - |
| 1777984797 | 15.56° C | 77% | 1014.4 hPa | 0 mm | - | - | - |
| 1777984496 | 15° C | 76% | 1014.4 hPa | 0 mm | - | - | - |
| 1777984197 | 15° C | 78% | 1014.4 hPa | 0 mm | - | - | - |
| 1777983897 | 15° C | 77% | 1014.4 hPa | 0 mm | - | - | - |
* Rain latest hour (hover to see other rain measurements)
** Current wind speed in m/s (hover to see current wind gust speed)